Terminal Aerodrome Forecast
Issued by NWS

Home | Current Version | Previous Version | Text Only | Print | Product List | Glossary On
Versions: 1 2 3 4 5 6 7 8 9 10 11 12 13 14 15 16 17 18 19 20 21 22 23 24
000
FTUS41 KCAR 301129
TAFBHB
TAF
KBHB 301129Z 3012/3112 13005KT 1/2SM FG OVC002
     FM301300 16004KT 6SM BR SCT001
     FM301400 17008KT P6SM BKN250
     FM310000 18006KT 6SM -RA SCT010 OVC060
     FM310400 18005KT 2SM -RA BR BKN006
     FM310600 21004KT 1/2SM FG OVC001
      AMD LTD TO CLD VIS AND WIND=

USA.gov is the U.S. government's official web portal to all federal, state and local government web resources and services.